(172127) = 2002 HD10

Discovered at Socorro on 2002-04-17 by LINEAR.

Orbit

Orbit type: Main Belt

Note: WebGL enabled browser required.

epoch2024-03-31.0
epoch JD2460400.5
perihelion date2024-07-10.91912
perihelion JD2460502.41912
argument of perihelion (°)250.32673
ascending node (°)38.49540
inclination (°)6.00298
eccentricity0.1268541
perihelion distance (AU)2.0471257
Tisserand w.r.t. Jupiter3.5
ΔV w.r.t. Earth (km/sec)9.1
semimajor axis (AU)2.3445402
mean anomaly (°)332.01837
mean daily motion (°/day)0.27454740
aphelion distance (AU)2.642
period (years)3.59
P-vector [x]0.31941732
P-vector [y]-0.82554038
P-vector [z]-0.46524796
Q-vector [x]0.94537562
Q-vector [y]0.31133882
Q-vector [z]0.09660782
absolute magnitude16.44
phase slope0.15
uncertainty0
referenceMPEC 2024-C181
observations used762
oppositions15
arc length (days)7695
first opposition used2002
last opposition used2023
residual rms (arc-secs)0.76
perturbers coarse indicatorM-v
perturbers precise indicator003Ek
first observation date used2002-03-20.0
last observation date used2023-04-14.0
computer nameMPCLINUX
JD of orbit computation2456966.825085
perihelion JD uncertainty (days)1.1835E-04
argument of perihelion uncertainty (°)5.8230E-05
ascending node uncertainty (°)4.7638E-05
inclination uncertainty (°)7.6267E-06
eccentricity uncertainty 3.9365E-08
perihelion distance uncertainty (AU)9.3884E-08
Minimum Orbit Intersection Distances (in AU)
for orbit epoch: 2460400.5, reference: E2024-CI1
Mercury1.59079
Venus1.32182
Earth1.04018
Mars0.60134
Jupiter2.50128
Saturn6.43099
Uranus15.9172
Neptune27.3438

Observations

822 total observations over interval: 2002 03 20.36041 – 2023 04 14.203771
These data are available for download (format description).

Date (UT) J2000 RA J2000 Dec Magn Location Ref
2002 03 20.36041 13 53 50.84 -07 44 20.7 19.4 R 699 – Lowell Observatory-LONEOS MPS 55229
2002 03 20.37292 13 53 50.35 -07 44 19.5   699 – Lowell Observatory-LONEOS MPS 55229
2002 03 20.38543 13 53 49.85 -07 44 16.4   699 – Lowell Observatory-LONEOS MPS 55229
2002 03 20.39796 13 53 49.28 -07 44 16.4   699 – Lowell Observatory-LONEOS MPS 55229
2002 04 08.27720 13 38 15.43 -06 59 10.5 19.1   644 – Palomar Mountain/NEAT MPS 55229
2002 04 08.35592 13 38 10.53 -06 58 56.8 18.7   644 – Palomar Mountain/NEAT MPS 55229
2002 04 08.42004 13 38 06.53 -06 58 45.5 18.9   644 – Palomar Mountain/NEAT MPS 55229
2002 04 10.30306 13 36 12.74 -06 53 17.5 19.0   704 – Lincoln Laboratory ETS, New Mexico MPS 55229
2002 04 10.31543 13 36 11.96 -06 53 15.6 19.5   704 – Lincoln Laboratory ETS, New Mexico MPS 55229
2002 04 10.32703 13 36 11.15 -06 53 12.6 19.4   704 – Lincoln Laboratory ETS, New Mexico MPS 55229
2002 04 10.33843 13 36 10.43 -06 53 11.6 19.4   704 – Lincoln Laboratory ETS, New Mexico MPS 55229
2002 04 10.34982 13 36 09.65 -06 53 08.8 19.7   704 – Lincoln Laboratory ETS, New Mexico MPS 55229
2002 04 14.33101 13 32 03.09 -06 41 32.3 18.6   644 – Palomar Mountain/NEAT MPS 55229
2002 04 14.35733 13 32 01.38 -06 41 27.7 19.0   644 – Palomar Mountain/NEAT MPS 55229
2002 04 14.37749 13 32 00.07 -06 41 24.1 18.9   644 – Palomar Mountain/NEAT MPS 55229
2002 04 17.33185 13 28 54.97 -06 32 57.4 18.5   704 – Lincoln Laboratory ETS, New Mexico MPS 55928
2002 04 17.34574 13 28 54.01 -06 32 55.5 19.1   704 – Lincoln Laboratory ETS, New Mexico MPS 55928
2002 04 17.35959 13 28 53.17 -06 32 52.2 18.6   704 – Lincoln Laboratory ETS, New Mexico MPS 55928
2002 04 17.37339 13 28 52.26 -06 32 48.7 19.1   704 – Lincoln Laboratory ETS, New Mexico MPS 55928
2002 04 17.38720 13 28 51.36 -06 32 47.8 18.9   704 – Lincoln Laboratory ETS, New Mexico MPS 55928
2002 04 22.25972 13 23 49.02 -06 19 41.2 19.0   644 – Palomar Mountain/NEAT MPS 55928
2002 04 22.27741 13 23 47.84 -06 19 39.0 19.4   704 – Lincoln Laboratory ETS, New Mexico MPS 55928
2002 04 22.29079 13 23 46.96 -06 19 36.9 19.0   704 – Lincoln Laboratory ETS, New Mexico MPS 55928
2002 04 22.30413 13 23 46.11 -06 19 34.0 19.2   704 – Lincoln Laboratory ETS, New Mexico MPS 55928
2002 04 22.33443 13 23 44.27 -06 19 29.8 19.0   644 – Palomar Mountain/NEAT MPS 55928
2002 04 22.39762 13 23 40.27 -06 19 19.9 19.0   644 – Palomar Mountain/NEAT MPS 55928
2002 05 02.21467 13 14 16.41 -05 58 40.3 19.0 R 699 – Lowell Observatory-LONEOS MPS 55229
2002 05 02.23068 13 14 15.48 -05 58 39.5   699 – Lowell Observatory-LONEOS MPS 55229
2002 05 02.24670 13 14 14.59 -05 58 38.8   699 – Lowell Observatory-LONEOS MPS 55229
2002 05 02.26262 13 14 13.72 -05 58 35.1   699 – Lowell Observatory-LONEOS MPS 55229
2002 05 08.22930 13 09 22.75 -05 51 23.6 19.7   704 – Lincoln Laboratory ETS, New Mexico MPS 55229
2002 05 08.24172 13 09 22.20 -05 51 22.5 19.6   704 – Lincoln Laboratory ETS, New Mexico MPS 55229
2002 05 08.25420 13 09 21.57 -05 51 22.8 19.0   704 – Lincoln Laboratory ETS, New Mexico MPS 55229
2002 05 08.26662 13 09 20.96 -05 51 21.8 19.4   704 – Lincoln Laboratory ETS, New Mexico MPS 55229
2002 05 14.22649 13 05 24.35 -05 49 13.8 19.2 R 699 – Lowell Observatory-LONEOS MPS 55229
2002 05 14.24241 13 05 23.70 -05 49 14.5   699 – Lowell Observatory-LONEOS MPS 55229
2002 05 14.25836 13 05 23.18 -05 49 14.8   699 – Lowell Observatory-LONEOS MPS 55229
2002 05 14.27439 13 05 22.61 -05 49 14.1   699 – Lowell Observatory-LONEOS MPS 55229
2003 09 19.48341 02 01 08.30 +08 22 00.6 19.8 V 691 – Steward Observatory, Kitt Peak-Spacewatch MPS 85208
2003 09 19.49697 02 01 07.79 +08 21 59.7 19.9 V 691 – Steward Observatory, Kitt Peak-Spacewatch MPS 85208
2003 09 19.51081 02 01 07.26 +08 21 58.3 19.9 V 691 – Steward Observatory, Kitt Peak-Spacewatch MPS 85208
2003 09 20.37259 02 00 36.13 +08 20 42.5 19.5 R 699 – Lowell Observatory-LONEOS MPS 85208
2003 09 20.38597 02 00 35.55 +08 20 42.0   699 – Lowell Observatory-LONEOS MPS 85208
2003 09 20.39929 02 00 34.96 +08 20 40.6   699 – Lowell Observatory-LONEOS MPS 85208
2003 09 20.41266 02 00 34.51 +08 20 39.1   699 – Lowell Observatory-LONEOS MPS 85208
2003 09 29.29109 01 53 58.71 +08 03 15.2 19.2   704 – Lincoln Laboratory ETS, New Mexico MPS 86207
2003 09 29.30543 01 53 57.94 +08 03 12.7 19.3   704 – Lincoln Laboratory ETS, New Mexico MPS 86207
2003 09 29.31874 01 53 57.21 +08 03 10.6 19.7   704 – Lincoln Laboratory ETS, New Mexico MPS 86207
2003 09 29.34535 01 53 55.77 +08 03 06.3 20.0   704 – Lincoln Laboratory ETS, New Mexico MPS 86207
2003 09 29.43893 01 53 50.78 +08 02 53.6 19.9 V 691 – Steward Observatory, Kitt Peak-Spacewatch MPS 86207
2003 09 29.46702 01 53 49.26 +08 02 49.6 19.7 V 691 – Steward Observatory, Kitt Peak-Spacewatch MPS 86207
2003 09 29.49443 01 53 47.81 +08 02 45.7 19.6 V 691 – Steward Observatory, Kitt Peak-Spacewatch MPS 86207
2003 10 18.37357 01 34 59.55 +07 09 36.7 19.5 V 691 – Steward Observatory, Kitt Peak-Spacewatch MPS 87985
2003 10 18.40147 01 34 57.73 +07 09 31.7 19.3 V 691 – Steward Observatory, Kitt Peak-Spacewatch MPS 87985
2003 10 18.43271 01 34 55.68 +07 09 26.0 19.2 V 691 – Steward Observatory, Kitt Peak-Spacewatch MPS 87985
2003 10 21.27889 01 31 55.92 +07 01 14.6 18.8   644 – Palomar Mountain/NEAT MPS 87985
2003 10 21.28500 01 31 55.43 +07 01 13.7 18.5   704 – Lincoln Laboratory ETS, New Mexico MPS 87985
2003 10 21.29692 01 31 54.63 +07 01 12.0 19.1   704 – Lincoln Laboratory ETS, New Mexico MPS 87985
2003 10 21.30237 01 31 54.37 +07 01 10.8 18.8   644 – Palomar Mountain/NEAT MPS 87985
2003 10 21.30924 01 31 53.86 +07 01 10.4 18.9   704 – Lincoln Laboratory ETS, New Mexico MPS 87985
2003 10 21.32104 01 31 53.13 +07 01 07.7 18.7   704 – Lincoln Laboratory ETS, New Mexico MPS 87985
2003 10 21.32984 01 31 52.60 +07 01 06.0 18.8   644 – Palomar Mountain/NEAT MPS 87985
2003 10 21.33272 01 31 52.33 +07 01 06.0 19.5   704 – Lincoln Laboratory ETS, New Mexico MPS 87985
2003 10 22.34707 01 30 49.14 +06 58 16.4 20.3   608 – Haleakala-AMOS MPS 87985
2003 10 22.35748 01 30 48.43 +06 58 14.8 20.0   608 – Haleakala-AMOS MPS 87985
2003 10 22.36804 01 30 47.76 +06 58 12.0 20.5   608 – Haleakala-AMOS MPS 87985
2003 10 24.23729 01 28 51.77 +06 53 07.3 19.5   704 – Lincoln Laboratory ETS, New Mexico MPS 87985
2003 10 24.25054 01 28 50.95 +06 53 05.0 19.6   704 – Lincoln Laboratory ETS, New Mexico MPS 87985
2003 10 24.26358 01 28 50.19 +06 53 02.7 19.6   704 – Lincoln Laboratory ETS, New Mexico MPS 87985
2003 10 24.27628 01 28 49.33 +06 53 00.6 19.6   704 – Lincoln Laboratory ETS, New Mexico MPS 87985
2003 10 24.28870 01 28 48.59 +06 52 58.2 19.6   704 – Lincoln Laboratory ETS, New Mexico MPS 87985
2003 10 26.27505 01 26 47.79 +06 47 48.4 19.0 V 703 – Catalina Sky Survey MPS 87985
2003 10 26.28866 01 26 46.85 +06 47 46.6 20.2 V 703 – Catalina Sky Survey MPS 87985
2003 10 26.30223 01 26 46.02 +06 47 44.0 19.4 V 703 – Catalina Sky Survey MPS 87985
2003 10 26.31578 01 26 45.08 +06 47 42.8 19.6 V 703 – Catalina Sky Survey MPS 87985
2003 10 28.20142 01 24 53.65 +06 43 04.8 19.3   704 – Lincoln Laboratory ETS, New Mexico MPS 89390
2003 10 28.21399 01 24 52.91 +06 43 04.2 19.6   704 – Lincoln Laboratory ETS, New Mexico MPS 89390
2003 10 28.22702 01 24 52.22 +06 43 00.5 19.9   704 – Lincoln Laboratory ETS, New Mexico MPS 89390
2003 10 28.24097 01 24 51.30 +06 43 00.2 19.8   704 – Lincoln Laboratory ETS, New Mexico MPS 89390
2003 10 28.25410 01 24 50.45 +06 42 58.0 20.1   704 – Lincoln Laboratory ETS, New Mexico MPS 89390
2004 12 20.496007 09 44 43.050 +22 17 31.63 20.99 V 645 – Apache Point-Sloan Digital Sky Survey MPS 390131
2004 12 20.499479 09 44 43.031 +22 17 32.39 22.18   645 – Apache Point-Sloan Digital Sky Survey MPS 390131
2005 02 01.30681 09 15 49.66 +25 56 41.6 20.1 R 703 – Catalina Sky Survey MPS 178324
2005 02 01.31536 09 15 48.98 +25 56 42.5 19.8 R 703 – Catalina Sky Survey MPS 178324
2005 02 01.32392 09 15 48.34 +25 56 44.8 19.6 R 703 – Catalina Sky Survey MPS 178324
2005 02 01.33243 09 15 47.82 +25 56 47.4 18.6 R 703 – Catalina Sky Survey MPS 178324
2007 11 20.19699 05 03 22.59 +27 46 42.8 19.8   704 – Lincoln Laboratory ETS, New Mexico MPS 228941
